Regional Weather Roundup
Issued by NWS

Home | Current Version | Previous Version | Text Only | Print | Product List | Glossary On
Versions: 1 2 3 4 5 6 7 8 9 10 11 12 13 14 15 16 17 18 19 20 21 22 23 24 25 26 27 28 29 30 31 32 33 34 35 36 37 38 39 40 41 42 43 44 45 46 47 48 49 50
000
ASUS44 KFWD 310210
RWRTX
NORTH TEXAS HOURLY WEATHER ROUNDUP
NATIONAL WEATHER SERVICE FORT WORTH TX
900 PM CDT SAT JUL 30 2016

NOTE: "FAIR" INDICATES FEW OR NO CLOUDS BELOW 12,000 FEET WITH NO
SIGNIFICANT WEATHER AND/OR OBSTRUCTIONS TO VISIBILITY.

TXZ118-119-310300-
DALLAS/FORT WORTH METROPLEX

CITY           SKY/WX    TMP DP  RH WIND       PRES   REMARKS
DFW AIRPORT    PTCLDY    93  62  35 S12       29.90R HX  93
DALLAS LOVE    PTCLDY    93  68  43 SE18      29.91R HX  97
FTW MEACHAM    CLEAR     93  62  35 SE12      29.90R HX  93
DAL-EXECUTIVE  CLEAR     90  67  46 SE10      29.91R HX  93
FTW-ALLIANCE   PTCLDY    90  62  39 S8        29.90R HX  90
FTW-NAS-JRB    CLEAR     93  61  34 S9        29.90R HX  93
FTW-SPINKS     CLEAR     86  66  51 SE5       29.93R
ARLINGTON      CLEAR     89  66  46 SE8       29.91R HX  91
GRAND PRAIRIE  CLEAR     91  64  40 SE7       29.92R HX  92
ADDISON        CLEAR     91  63  38 SE15G23   29.91R HX  92
MESQUITE       CLEAR     87  68  53 SE6       29.92R HX  90
LANCASTER      CLEAR     90  68  49 SE5       29.92S HX  93
$$

TXZ091>094-102>105-117-120-121-131>134-310300-
NORTH CENTRAL TEXAS

CITY           SKY/WX    TMP DP  RH WIND       PRES   REMARKS
SHRMAN/DENISON CLEAR     90  67  45 SE10      29.94R HX  93
GAINESVILLE    CLEAR     83  69  61 SE6       29.94R
BOWIE          CLEAR     86  70  59 SE3       29.91S HX  91
BRIDGEPORT     CLEAR     87  68  52 SE5       29.92R HX  91
DECATUR        CLEAR     88  63  43 SE5       29.92S
DENTON         CLEAR     87  67  51 S10       29.90R HX  90
MCKINNEY       CLEAR     88  70  55 SE8       29.92R HX  93
GREENVILLE     CLEAR     86  64  48 S7        29.93S
ROCKWALL       CLEAR     89  70  53 SE6       29.92R HX  93
TERRELL        CLEAR     89  68  49 SE6       29.93R HX  93
WAXAHACHIE     CLEAR     88  68  52 SE5       29.93R HX  91
CLEBURNE       CLEAR     90  66  45 SE10      29.94R HX  92
GRANBURY       CLEAR     92  64  38 SE9       29.91S HX  94
$$

TXZ083>090-098>101-113>116-127>130-139>142-154-155-310300-
WESTERN NORTH TEXAS

CITY           SKY/WX    TMP DP  RH WIND       PRES   REMARKS
WICHITA FALLS  CLEAR     88  65  46 SE10      29.87R HX  90
WF-KICKAPOO    CLEAR     92  62  36 SE9       29.89R HX  92
VERNON         PTCLDY    90  54  29 S8        29.89R
ABILENE        CLEAR     89  61  38 SE6       29.94R
ABILENE-DYESS  PTCLDY    91  63  39 SE9       29.92R HX  91
CISCO          CLEAR     90  64  43 SE12      29.95R HAZE    HX  91
BRECKENRIDGE   CLEAR     91  62  38 SE8       29.91R HX  91
GRAHAM         CLEAR     89  65  44 SE5       29.89R HX  90
MINERAL WELLS  CLEAR     88  65  46 S7        29.90R HX  90
STEPHENVILLE   CLEAR     88  63  42 SE7       29.96S
COMANCHE       CLEAR     88  63  43 SE7       29.94R
BROWNWOOD      PTCLDY    90  63  40 SE8       29.93R HX  90
COLEMAN        PTCLDY    89  60  37 SE8       29.94R
$$

TXZ143>147-156>162-174-175-310300-
CENTRAL TEXAS

CITY           SKY/WX    TMP DP  RH WIND       PRES   REMARKS
WACO           CLEAR     91  66  43 S9        29.91S HX  93
WACO-TSTC      CLEAR     90  66  45 S6        29.92S HX  92
WACO-MCGREGOR  CLEAR     89  67  47 S8        29.93  HX  92
HILLSBORO      CLEAR     87  65  47 SE6       29.93R
CORSICANA      CLEAR     89  70  53 SE8       29.94R HX  94
MEXIA          CLEAR     86  69  56 SE3       29.93S HX  90
HEARNE         CLEAR     87  71  57 CALM      29.94S HX  92
CAMERON        CLEAR     88  68  51 SE5       29.93S HX  92
TEMPLE         CLEAR     89  68  49 S10       29.94R HX  93
KILLEEN        CLEAR     86  65  49 SE9       29.94R
KILLEEN-SKYLRK CLEAR     89  68  49 S12       29.94S HX  93
FORT HOOD      CLEAR     88  66  48 S8        29.92R HX  90
GATESVILLE     CLEAR     88  64  45 S7        29.96R
HAMILTON       CLEAR     89  64  44 S12       29.95S HX  90
LAMPASAS       CLEAR     91  71  51 SE7       29.95R HX  96
$$

TXZ095>097-106>112-122>126-135>138-148>153-164>167-310300-
EAST TEXAS

CITY           SKY/WX    TMP DP  RH WIND       PRES   REMARKS
PARIS          CLEAR     79  64  61 E10       29.95R
SULPHUR SPRNGS CLEAR     90  65  43 S6        29.95S HX  91
MOUNT PLEASANT CLEAR     84  70  63 E8        29.94F
GILMER         CLEAR     86  72  62 CALM      29.95S THUNDER HX  91
MINEOLA        CLEAR     88  72  58 E3        29.95S HX  94
TYLER          CLEAR     89  69  51 S7        29.95R HX  93
LONGVIEW       CLEAR     83  73  72 S5        29.93S
MARSHALL       PTCLDY    81  72  73 E6        29.98S
ATHENS         CLEAR     82  70  65 SE3       29.94R
PALESTINE      CLEAR     85  72  64 CALM      29.96R HX  92
JACKSONVILLE   CLEAR     86  71  60 CALM      29.99R HX  90
HENDERSON      CLEAR     82  73  73 CALM      29.97S
CENTER         CLEAR     83  79  87 CALM      29.98R HX  94
NACOGDOCHES    CLEAR    N/A N/A N/A CALM      29.95R
LUFKIN         PTCLDY    83  74  74 SE5       29.95R
$$

SUPPLEMENTAL OBSERVATIONS (CENTRAL)

CITY           SKY/WX    TMP DP  RH WIND       PRES   REMARKS
CADDO GRASSLND   N/A     82  70  65 E6          N/A
PAT MAYSE LAKE   N/A     79  75  89 E7          N/A
GREENVILLE       N/A     88  63  42 S5          N/A
CEDAR HILL       N/A     86  66  51 SE3         N/A
MCGREGOR         N/A     86  66  51 S8          N/A
TEMPLE           N/A     86  64  48 S6          N/A
$$

SUPPLEMENTAL OBSERVATIONS (WEST)

CITY           SKY/WX    TMP DP  RH WIND       PRES   REMARKS
MILLERS CREEK    N/A     90  61  37 SE9         N/A
POSSUM KINGDOM   N/A     90  63  40 SE7         N/A  HX  90
LBJ GRASSLAND    N/A     88  66  48 SE6         N/A  HX  90
GRANBURY         N/A     91  64  40 SE10        N/A  HX  93
HAMBY            N/A     88  59  37 SE3         N/A
IVIE RESERVOIR   N/A    N/A N/A N/A E9          N/A
COLORADO BEND    N/A     88  64  45 S9          N/A
$$

SUPPLEMENTAL OBSERVATIONS (EAST)

CITY           SKY/WX    TMP DP  RH WIND       PRES   REMARKS
CLARKSVILLE      N/A     79  72  78 SE7         N/A
TEXARKANA        N/A     75  72  88 SE2         N/A
LINDEN           N/A     79  70  73 SE2         N/A
GILMER           N/A     82  72  69 S1          N/A
HENDERSON        N/A     82  75  78 CALM        N/A
LUFKIN           N/A     82  75  78 MISG        N/A
N SABINE NF      N/A     82  75  78 MISG        N/A
S SABINE NF      N/A     81  75  83 CALM        N/A
$$

SUPPLEMENTAL OBSERVATIONS ARE A COLLECTION OF AUTOMATED INSTRUMENTS
THAT ARE MAINTAINED BY A VARIETY OF FEDERAL AND STATE AGENCIES.
CERTAIN ELEMENTS...SUCH AS HUMIDITY VALUES AND SUSTAINED WIND
SPEEDS...MAY BE APPROXIMATED.




USA.gov is the U.S. government's official web portal to all federal, state and local government web resources and services.